Regional Weather Roundup
Issued by NWS

Home | Current Version | Previous Version | Graphics & Text | Print | Product List | Glossary On
Versions: 1 2 3 4 5 6 7 8 9 10 11 12 13 14 15 16 17 18 19 20 21 22 23 24 25 26 27 28 29 30 31 32 33 34 35 36 37 38 39 40 41 42 43 44 45 46 47 48 49 50
000
ASUS45 KCYS 060110
RWRWY

WYOMING REGIONAL WEATHER ROUNDUP
NATIONAL WEATHER SERVICE CHEYENNE WY
600 PM MST MON DEC 05 2016

NOTE:  "FAIR" INDICATES FEW OR NO CLOUDS BELOW 12,000 FEET
WITH NO SIGNIFICANT WEATHER AND/OR OBSTRUCTIONS TO VISIBILITY.

WYZ001-060200-
YELLOWSTONE NATIONAL PARK

CITY           SKY/WX    TMP DP  RH WIND       PRES   REMARKS
LK YELLOWSTONE   N/A     -5  -8  87 CALM      29.84R
W YELLOWSTONE  NOT AVBL

$$
WYZ002>013-054>058-071-098>099-060200-
NORTHERN WYOMING

CITY           SKY/WX    TMP DP  RH WIND       PRES   REMARKS
JACKSON        MOCLDY     7  -2  66 S6        29.92S WCI  -3
CODY           FAIR      11   6  81 S3        29.93R
GREYBULL       MOCLDY    21   4  47 NW9       29.96R WCI  11
WORLAND        CLOUDY    17  10  74 NW7       29.97R WCI   8
SHERIDAN       FAIR      14   7  73 NW9       29.97R WCI   2
BUFFALO        FAIR      15   5  64 N16       29.90R WCI  -1
GILLETTE       FAIR      15   9  76 NW17      29.90R WCI  -1
HULETT         LGT SNOW  18  12  79 CALM      29.88R
NEWCASTLE      MOCLDY    18  10  73 NW12      29.88R WCI   5

$$
WYZ014>020-022>026-101>103-060200-
CENTRAL WYOMING

CITY           SKY/WX    TMP DP  RH WIND       PRES   REMARKS
BIG PINEY      FAIR       1  -9  62 N9        29.91R WCI -14
PINEDALE       FAIR       1  -6  71 N6        29.91R WCI -10
DUBOIS         FAIR       3  -8  60 NW13      29.84R WCI -14
LANDER         FAIR      16  -3  43 NW8       29.89R WCI   5
RIVERTON       FAIR      14   6  70 N8        29.91R WCI   3
CASPER         CLOUDY    14   9  80 NE5       29.89R WCI   6
DOUGLAS        CLOUDY    17  10  74 NW13      29.91R WCI   4

$$
WYZ021-027>030-104>119-060200-
SOUTHERN WYOMING

CITY           SKY/WX    TMP DP  RH WIND       PRES   REMARKS
EVANSTON       FAIR      12 -19  23 W9        29.92R WCI   0
FORT BRIDGER   FAIR      11 -12  34 NW3       29.95S
ROCK SPRINGS   FAIR      11  -6  46 W13       29.90S WCI  -4
DIXON          CLOUDY    17  -4  38 W9G16     29.94R WCI   6
RAWLINS        FAIR      13 -10  35 W21G29    29.86R WCI  -5
SARATOGA       FAIR      10  -6  48 W10       29.86R WCI  -3
LARAMIE        CLOUDY    12  -6  44 W15       29.80R WCI  -4
CHEYENNE       MOCLDY    20  -7  30 NW13G23   29.83R WCI   7
TORRINGTON     CLOUDY    21  11  65 W12       29.91R WCI   9
PINE BLUFFS    FAIR      18  12  79 NW17G25   29.85R WCI   2

$$



USA.gov is the U.S. government's official web portal to all federal, state and local government web resources and services.